Location: Newark
(42.8481°N, 0.4872°E)
Time: 20:03:30
(UTC+00:00)

deb Explorer IX - Visible Passes

Search period start: 28 October 2020 00:00
Search period end: 07 November 2020 00:00
Orbit: 537 x 1106 km, 38.8° (Epoch: 27 October)

Date Brightness Start Highest point End Pass type
(mag) Time Alt. Az. Time Alt. Az. Time Alt. Az.
28 Oct ? 03:30:41 10° SSE 03:32:41 12° SE 03:34:47 10° ESE visible
28 Oct ? 05:13:06 10° SW 05:18:33 37° SSE 05:24:44 10° E visible
29 Oct ? 03:09:15 11° SE 03:09:27 11° SE 03:11:11 10° ESE visible
29 Oct ? 04:50:34 13° SW 04:55:18 36° SSE 05:01:19 10° E visible
30 Oct ? 04:29:02 22° SSW 04:32:02 35° SSE 04:37:54 10° E visible
31 Oct ? 04:07:24 30° S 04:08:47 34° SSE 04:14:28 10° E visible
31 Oct ? 05:49:34 10° WSW 05:55:25 60° S 06:02:11 10° E visible
01 Nov ? 03:45:42 34° SSE 03:45:42 34° SSE 03:51:03 10° E visible
01 Nov ? 05:27:01 13° WSW 05:32:08 59° S 05:38:45 10° E visible
02 Nov ? 03:23:57 28° SE 03:23:57 28° SE 03:27:38 10° E visible
02 Nov ? 05:05:15 22° WSW 05:08:53 58° S 05:15:20 10° E visible
03 Nov ? 03:02:08 20° ESE 03:02:08 20° ESE 03:04:14 10° E visible
03 Nov ? 04:43:26 35° SW 04:45:38 58° S 04:51:55 10° E visible
04 Nov ? 02:40:18 12° E 02:40:18 12° E 02:40:51 10° E visible
04 Nov ? 04:21:36 52° SSW 04:22:24 57° S 04:28:30 10° E visible
04 Nov ? 06:03:39 10° W 06:09:15 52° SSW 06:15:45 10° ESE visible
05 Nov ? 03:59:45 53° SSE 03:59:45 53° SSE 04:05:05 10° E visible
05 Nov ? 05:41:03 13° W 05:45:59 51° S 05:52:20 10° ESE visible
06 Nov ? 03:37:53 37° ESE 03:37:53 37° ESE 03:41:41 10° E visible
06 Nov ? 05:19:11 21° WSW 05:22:44 50° SSW 05:28:53 10° ESE visible
